Weather History for Cumberland, MD

Change the Weather History Date:

Tuesday, May 13, 2014

  Actual Average (KMRB) Record (KMRB)
Temperature  
Mean Temperature 76 °F 60 °F  
Max Temperature 91 °F 72 °F 91 °F (1956)
Min Temperature 62 °F 49 °F 34 °F (1928)
Degree Days  
Heating Degree Days 0 6  
Month to date heating degree days 94  
Since 1 July heating degree days 5151  
Cooling Degree Days 12 1  
Month to date cooling degree days 13  
Year to date cooling degree days 22  
Growing Degree Days 26 (Base 50)    
Moisture  
Dew Point 65 °F    
Average Humidity 83    
Maximum Humidity 100    
Minimum Humidity 40    
Precipitation  
Precipitation 0.00 in 0.13 in 1.90 in (1932)
Month to date precipitation 1.71  
Year to date precipitation 13.35  
Sea Level Pressure  
Sea Level Pressure 30.15 in    
Wind  
Wind Speed 4 mph (SE)    
Max Wind Speed 20 mph    
Max Gust Speed 18 mph    
Visibility 9 miles    
Events      
T = Trace of Precipitation, MM = Missing Value Source: NWS Daily Summary

Daily Weather History Graph

Daily Weather History Graph

Search for Another Location

Airport:

Trip Planner

Search our weather history database for the weather conditions in past years. The results will help you decide how hot, cold, wet, or windy it might be!

Date:

Astronomy

May. 13, 2014 Rise Set
Actual Time 6:02 AM EDT 8:20 PM EDT
Civil Twilight 5:32 AM EDT 8:51 PM EDT
Nautical Twilight 4:55 AM EDT 9:28 PM EDT
Astronomical Twilight 4:14 AM EDT 10:09 PM EDT
Moon 7:20 PM EDT (5/13) 5:17 AM EDT (5/13)
Length of Visible Light 15h 18m
Length of Day
14h 18m
Waxing Gibbous, 98% of the Moon is Illuminated
May 13
Waxing Gibbous
May 14
Full
May 21
Last Quarter
May 28
New
Jun 5
First Quarter

Hourly Weather History & Observations

Time (EDT) Temp. Heat Index Dew Point Humidity Pressure Visibility Wind Dir Wind Speed Gust Speed Precip Events Conditions
12:08 AM 64.4 °F - 62.6 °F 94% 30.15 in 10.0 mi NNE 5.8 mph - N/A   Clear
12:28 AM 66.2 °F - 64.4 °F 94% 30.14 in 10.0 mi NNE 5.8 mph - N/A   Clear
12:48 AM 64.4 °F - 62.6 °F 94% 30.13 in 10.0 mi North 4.6 mph - N/A   Clear
1:08 AM 64.4 °F - 62.6 °F 94% 30.13 in 10.0 mi North 5.8 mph - N/A   Clear
1:28 AM 64.4 °F - 62.6 °F 94% 30.13 in 10.0 mi North 4.6 mph - N/A   Scattered Clouds
1:48 AM 64.4 °F - 62.6 °F 94% 30.14 in 10.0 mi North 6.9 mph - N/A   Scattered Clouds
2:08 AM 64.4 °F - 62.6 °F 94% 30.14 in 10.0 mi North 3.5 mph - N/A   Scattered Clouds
2:28 AM 66.2 °F - 62.6 °F 88% 30.14 in 2.5 mi NE 4.6 mph - N/A   Mostly Cloudy
2:48 AM 64.4 °F - 62.6 °F 94% 30.18 in - North - - N/A   Unknown
3:08 AM 64.4 °F - 62.6 °F 94% 30.17 in 10.0 mi NE 8.1 mph - N/A   Mostly Cloudy
3:27 AM 64.4 °F - 62.6 °F 94% 30.17 in - North 3.5 mph - N/A   Unknown
3:48 AM 64.4 °F - 62.6 °F 94% 30.16 in 10.0 mi Calm Calm - N/A   Scattered Clouds
4:08 AM 64.4 °F - 62.6 °F 94% 30.15 in - West 3.5 mph - N/A   Unknown
4:28 AM 64.4 °F - 62.6 °F 94% 30.16 in - South 4.6 mph - N/A   Unknown
4:48 AM 62.6 °F - 62.6 °F 100% 30.15 in 10.0 mi South 4.6 mph - N/A   Clear
5:08 AM 62.6 °F - 62.6 °F 100% 30.15 in 5.0 mi South 3.5 mph - N/A   Clear
5:28 AM 62.6 °F - 62.6 °F 100% 30.14 in 7.0 mi Calm Calm - N/A   Clear
5:48 AM 62.6 °F - 62.6 °F 100% 30.15 in 5.0 mi Calm Calm - N/A   Clear
6:08 AM 62.6 °F - 62.6 °F 100% 30.15 in - Calm Calm - N/A   Unknown
6:28 AM 62.6 °F - 62.6 °F 100% 30.15 in 2.5 mi Calm Calm - N/A   Clear
7:08 AM 62.6 °F - 62.6 °F 100% 30.16 in 2.0 mi Calm Calm - N/A   Mostly Cloudy
7:29 AM 62.6 °F - 62.6 °F 100% 30.17 in 2.5 mi Calm Calm - N/A   Overcast
7:49 AM 64.4 °F - 62.6 °F 94% 30.17 in 5.0 mi Calm Calm - N/A   Scattered Clouds
8:09 AM 64.4 °F - 64.4 °F 100% 30.17 in 5.0 mi Calm Calm - N/A   Mostly Cloudy
9:09 AM 69.8 °F - 64.4 °F 83% 30.18 in 10.0 mi Calm Calm - N/A   Clear
9:29 AM 71.6 °F - 64.4 °F 78% 30.18 in 10.0 mi Calm Calm - N/A   Clear
9:49 AM 71.6 °F - 66.2 °F 83% 30.18 in 10.0 mi SSE 3.5 mph - N/A   Clear
10:09 AM 73.4 °F - 64.4 °F 73% 30.18 in 10.0 mi Calm Calm - N/A   Clear
10:49 AM 77.0 °F - 68.0 °F 74% 30.17 in 10.0 mi Calm Calm - N/A   Clear
11:09 AM 78.8 °F - 68.0 °F 69% 30.16 in 10.0 mi Calm Calm - N/A   Clear
12:09 PM 82.4 °F 83.9 °F 64.4 °F 54% 30.15 in 10.0 mi Calm Calm - N/A   Clear
12:29 PM 84.2 °F 85.6 °F 64.4 °F 51% 30.15 in 10.0 mi South 4.6 mph - N/A   Clear
12:49 PM 86.0 °F 88.2 °F 66.2 °F 51% 30.13 in 10.0 mi ESE 3.5 mph - N/A   Clear
1:29 PM 87.8 °F 89.4 °F 64.4 °F 46% 30.12 in 10.0 mi SE 4.6 mph - N/A   Clear
1:49 PM 87.8 °F 89.4 °F 64.4 °F 46% 30.12 in 10.0 mi NE 3.5 mph - N/A   Scattered Clouds
2:09 PM 87.8 °F 89.4 °F 64.4 °F 46% 30.12 in 10.0 mi Calm Calm - N/A   Scattered Clouds
2:29 PM 87.8 °F 89.4 °F 64.4 °F 46% 30.10 in 10.0 mi Calm Calm - N/A   Clear
2:49 PM 89.6 °F 91.1 °F 64.4 °F 43% 30.09 in 10.0 mi ENE 4.6 mph - N/A   Clear
3:09 PM 89.6 °F 90.1 °F 62.6 °F 40% 30.09 in 10.0 mi Calm Calm - N/A   Clear
3:29 PM 91.4 °F 93.2 °F 64.4 °F 41% 30.08 in 10.0 mi ENE 6.9 mph - N/A   Clear
3:49 PM 87.8 °F 88.5 °F 62.6 °F 43% 30.08 in 10.0 mi Calm Calm - N/A   Scattered Clouds
4:09 PM 87.8 °F 88.5 °F 62.6 °F 43% 30.08 in 10.0 mi ESE 3.5 mph - N/A   Scattered Clouds
4:30 PM 86.0 °F 87.3 °F 64.4 °F 48% 30.10 in 10.0 mi SSW 15.0 mph 18.4 mph N/A   Scattered Clouds
4:50 PM 73.4 °F - 66.2 °F 78% 30.14 in 1.5 mi South 19.6 mph - N/A   Overcast
5:10 PM 69.8 °F - 68.0 °F 94% 30.16 in 7.0 mi SSE 9.2 mph - N/A   Overcast
5:30 PM 69.8 °F - 68.0 °F 94% 30.14 in 10.0 mi SE 6.9 mph - N/A   Scattered Clouds
5:50 PM 69.8 °F - 68.0 °F 94% 30.13 in 10.0 mi SSE 6.9 mph - N/A   Scattered Clouds
6:10 PM 69.8 °F - 68.0 °F 94% 30.14 in 10.0 mi SSE 3.5 mph - N/A   Clear
6:30 PM 69.8 °F - 68.0 °F 94% 30.16 in 10.0 mi East 3.5 mph - N/A   Clear
6:50 PM 69.8 °F - 66.2 °F 88% 30.15 in 10.0 mi SSW 4.6 mph - N/A   Scattered Clouds
7:10 PM 69.8 °F - 68.0 °F 94% 30.15 in 10.0 mi SSW 4.6 mph - N/A   Scattered Clouds
7:30 PM 69.8 °F - 66.2 °F 88% 30.14 in 10.0 mi SSW 5.8 mph - N/A   Clear
7:50 PM 69.8 °F - 66.2 °F 88% 30.14 in 10.0 mi SSE 4.6 mph - N/A   Clear
8:10 PM 68.0 °F - 66.2 °F 94% 30.14 in 10.0 mi Calm Calm - N/A   Clear
8:30 PM 68.0 °F - 66.2 °F 94% 30.15 in 10.0 mi SE 3.5 mph - N/A   Clear
8:50 PM 68.0 °F - 66.2 °F 94% 30.15 in 10.0 mi Calm Calm - N/A   Clear
9:10 PM 68.0 °F - 66.2 °F 94% 30.16 in 10.0 mi Calm Calm - N/A   Clear
9:30 PM 68.0 °F - 64.4 °F 88% 30.15 in 10.0 mi Calm Calm - N/A   Clear
9:50 PM 68.0 °F - 66.2 °F 94% 30.16 in 7.0 mi SE 3.5 mph - N/A   Clear
10:10 PM 68.0 °F - 66.2 °F 94% 30.17 in 10.0 mi SSE 3.5 mph - N/A   Clear
10:30 PM 68.0 °F - 66.2 °F 94% 30.18 in 10.0 mi Calm Calm - N/A   Scattered Clouds
10:50 PM 66.2 °F - 66.2 °F 100% 30.18 in 7.0 mi Calm Calm - N/A   Clear
11:10 PM 66.2 °F - 64.4 °F 94% 30.20 in 10.0 mi SSW 4.6 mph - N/A   Scattered Clouds
11:30 PM 66.2 °F - 66.2 °F 100% 30.20 in 7.0 mi ESE 4.6 mph - N/A   Mostly Cloudy
11:50 PM 66.2 °F - 66.2 °F 100% 30.20 in 4.0 mi SW 4.6 mph - N/A   Scattered Clouds